This is the latest recevied weather packets stored in our database for station/object N0HOT. If no packets are shown the sender has not sent any weather packets the latest 10 day(s).
| Time | Temp. | Humidity | Pressure | Rain* | Wind** | Luminosity | Snow |
|---|---|---|---|---|---|---|---|
| 1777921198 | 23.33° C | 22% | 997.3 hPa | 0 mm | - | 440 W/m² | - |
| 1777920895 | 23.33° C | 24% | 997 hPa | 0 mm | - | 572 W/m² | - |
| 1777920592 | 23.89° C | 21% | 997.3 hPa | 0 mm | - | 467 W/m² | - |
| 1777920287 | 23.89° C | 22% | 997.3 hPa | 0 mm | - | 507 W/m² | - |
| 1777919983 | 24.44° C | 23% | 997.3 hPa | 0 mm | - | 584 W/m² | - |
| 1777919680 | 24.44° C | 23% | 997 hPa | 0 mm | - | 668 W/m² | - |
| 1777919378 | 24.44° C | 22% | 997.3 hPa | 0 mm | - | 589 W/m² | - |
| 1777919075 | 24.44° C | 25% | 997 hPa | 0 mm | - | 756 W/m² | - |
| 1777918772 | 24.44° C | 22% | 997 hPa | 0 mm | - | 784 W/m² | - |
| 1777918469 | 24.44° C | 22% | 997 hPa | 0 mm | - | 734 W/m² | - |
| 1777918168 | 24.44° C | 24% | 997 hPa | 0 mm | - | 922 W/m² | - |
| 1777917866 | 24.44° C | 26% | 997 hPa | 0 mm | - | 960 W/m² | - |
| 1777917564 | 24.44° C | 28% | 997 hPa | 0 mm | - | 815 W/m² | - |
| 1777917261 | 24.44° C | 27% | 997 hPa | 0 mm | - | 832 W/m² | - |
| 1777916959 | 24.44° C | 26% | 997 hPa | 0 mm | - | 841 W/m² | - |
| 1777916656 | 24.44° C | 29% | 997 hPa | 0 mm | - | 858 W/m² | - |
| 1777916353 | 24.44° C | 29% | 997 hPa | 0 mm | - | 855 W/m² | - |
| 1777916049 | 24.44° C | 28% | 997 hPa | 0 mm | - | 874 W/m² | - |
| 1777915747 | 24.44° C | 29% | 997.3 hPa | 0 mm | - | 909 W/m² | - |
| 1777915443 | 24.44° C | 30% | 997 hPa | 0 mm | - | 935 W/m² | - |
| 1777915139 | 24.44° C | 28% | 997 hPa | 0 mm | - | 955 W/m² | - |
| 1777914837 | 24.44° C | 28% | 997 hPa | 0 mm | - | 928 W/m² | - |
| 1777914534 | 24.44° C | 29% | 997 hPa | 0 mm | - | 908 W/m² | - |
| 1777914230 | 23.89° C | 28% | 997 hPa | 0 mm | - | 872 W/m² | - |
| 1777913927 | 23.89° C | 29% | 997.3 hPa | 0 mm | - | 902 W/m² | - |
* Rain latest hour (hover to see other rain measurements)
** Current wind speed in m/s (hover to see current wind gust speed)